Location: Arleux
(50.3632°N, 2.8721°E)
Time: 20:02:47
(UTC+00:00)

CZ-4B R/B - Pass Details

Date: 15 December 2019
Orbit: 809 x 881 km, 99.1° (Epoch: 28 January)

Event Time Altitude Azimuth Distance (km) Brightness Sun altitude
Rises 05:57:14 0° 14° (NNE) 3,460 6.3 -15.6°
Reaches altitude 10° 05:59:37 10° 12° (NNE) 2,527 5.6 -15.2°
Maximum altitude 06:05:13 73° 289° (WNW) 918 3.2 -14.4°
Drops below altitude 10° 06:10:51 10° 206° (SSW) 2,534 5.6 -13.5°
Sets 06:13:15 0° 205° (SSW) 3,470 6.4 -13.2°
